Wind_Speed
25 26 27 27 27 28 28 28 28 30 31 27 22 14 5 3 3 2 3 6 9 4 3 3 3 4 5 6 7 7 5 5 6 6 6 6 6 6 6 8 8 7 7 6 9 9 3 4 6 5 9 11 10 11 14 15 13 8 3 3 2 2 4 4 4 3 4 5 5 8 11 7 3 6 4 4 5 6 6 4 4 5 3 3 5 2 4
25 25 26 27 27 27 27 28 29 29 30 28 20 8 2 3 3 2 4 8 7 2 4 3 3 4 5 7 7 6 6 7 8 8 7 5 5 5 6 7 8 8 8 7 9 10 4 5 9 5 8 10 13 12 14 15 12 6 3 3 1 1 3 5 5 4 2 2 2 6 10 7 2 4 5 5 5 7 9 4 2 2 4 5 6 2 5
25 26 26 27 27 28 28 28 29 29 29 27 17 5 2 3 3 1 3 7 5 3 2 2 3 4 4 7 8 6 6 7 10 11 8 7 7 6 6 7 8 8 8 8 11 12 7 5 7 6 5 8 11 12 15 16 11 6 4 6 3 2 2 4 5 5 4 5 4 4 6 4 2 2 6 8 7 7 9 4 3 1 4 5 6 3 5
26 26 26 27 27 28 28 29 30 29 28 27 16 5 2 3 2 1 1 4 3 3 3 4 5 4 3 5 6 5 5 6 8 10 8 9 9 7 7 8 8 8 7 7 9 12 10 6 5 5 4 6 7 10 15 16 13 10 7 8 5 1 1 3 5 6 6 5 3 3 4 3 3 4 5 7 9 6 5 4 3 4 3 2 4 7 7
25 25 26 27 27 28 29 29 31 31 27 23 13 4 2 2 2 2 2 2 2 3 4 4 4 2 1 2 3 4 7 8 4 7 6 7 9 6 7 8 7 7 6 5 8 10 8 6 5 4 3 4 6 9 14 14 14 12 7 5 4 3 1 2 3 3 5 6 5 6 7 7 6 6 5 6 10 8 4 5 5 5 5 1 4 10 12
25 25 25 26 27 28 28 29 32 32 27 19 10 2 2 1 1 2 4 3 2 2 3 4 5 4 3 2 3 5 9 9 2 4 4 6 5 4 4 6 8 10 8 5 7 6 3 3 2 1 2 3 3 7 12 10 9 10 5 3 3 4 1 3 1 4 4 6 9 10 11 10 8 8 8 6 9 11 6 5 4 3 7 6 6 10 12
25 25 25 26 26 27 28 29 31 32 28 19 9 3 1 2 2 2 2 2 3 5 7 7 7 6 6 3 4 5 8 9 4 4 4 4 4 5 3 5 7 9 9 8 6 3 0 2 1 2 3 3 2 2 6 4 2 4 5 3 3 4 1 2 2 4 8 8 11 13 14 11 9 10 10 6 9 11 7 6 4 3 7 11 9 9 9
25 25 25 25 26 26 27 27 29 31 29 20 9 3 2 2 2 2 2 3 5 6 6 6 6 5 4 3 4 4 5 8 6 3 3 2 2 4 4 7 9 10 11 10 5 2 2 1 2 1 2 2 1 1 3 3 1 2 6 3 2 3 1 3 3 3 7 5 5 10 13 11 10 12 12 8 7 7 6 7 5 4 4 9 12 10 6
25 25 25 25 25 26 26 26 28 29 27 18 8 4 5 7 8 6 3 3 3 3 3 4 4 3 2 2 3 2 4 7 4 2 3 3 1 2 3 6 7 7 10 8 2 4 5 3 2 1 2 3 3 3 2 5 5 4 6 4 0 2 1 4 3 2 5 3 3 0 4 5 3 7 11 10 6 4 5 6 6 5 5 7 10 8 5
25 25 25 24 25 25 25 26 27 27 25 17 7 5 9 11 11 7 2 2 2 1 2 3 3 2 1 3 4 3 7 7 3 3 3 4 2 2 4 5 5 5 8 7 4 5 5 3 3 4 5 8 7 7 4 5 6 3 4 4 1 3 3 2 2 1 4 4 5 6 6 7 3 5 8 8 7 4 3 4 5 6 7 8 6 6 7
25 25 25 24 24 24 25 24 25 25 25 20 11 10 12 11 8 5 2 2 2 2 2 3 3 3 5 6 5 5 7 5 4 3 3 2 3 4 5 4 3 3 6 5 5 9 8 4 3 5 9 13 12 9 7 5 8 4 3 5 2 3 3 2 1 3 3 5 5 7 5 3 3 7 4 3 6 5 5 6 6 5 5 6 6 5 6
25 25 25 24 24 24 24 24 24 24 23 22 16 14 16 14 9 5 2 3 6 5 3 4 6 6 7 7 5 3 5 6 4 4 5 5 5 6 5 3 1 2 5 6 7 9 9 6 7 12 15 17 15 12 8 5 9 7 4 6 4 3 2 2 1 2 2 3 6 6 1 3 6 7 3 5 8 6 3 4 5 6 7 7 6 4 6
24 25 25 24 24 24 23 24 24 23 23 24 20 17 19 17 9 4 3 4 6 5 5 7 9 8 7 6 6 5 4 6 6 5 5 5 5 6 5 3 2 3 5 7 8 7 5 4 6 12 16 15 12 11 9 7 9 8 5 6 6 4 3 0 2 1 1 1 3 2 4 5 5 5 3 4 7 8 6 4 5 3 7 8 7 6 6
23 24 25 25 24 24 24 23 23 23 23 24 22 19 20 17 9 5 4 3 5 8 7 6 7 10 10 9 8 6 4 5 5 4 3 4 6 6 5 3 4 5 5 6 5 3 1 2 2 5 7 6 4 6 8 8 9 9 6 6 6 5 4 2 2 1 2 3 2 1 1 4 6 6 2 2 4 4 6 2 5 4 2 6 8 8 7
23 24 24 25 24 24 24 23 24 24 24 25 24 21 20 17 13 8 5 3 6 8 4 2 6 9 9 9 9 7 5 5 5 4 4 5 4 4 4 5 6 7 6 4 3 1 1 1 1 1 3 2 2 4 5 4 6 8 6 6 7 5 4 4 2 1 1 4 2 1 2 2 5 7 6 2 5 6 7 4 4 7 3 2 5 7 8
23 24 24 25 25 24 23 24 23 23 24 26 26 23 19 15 14 13 8 3 4 5 6 7 6 5 4 5 7 6 4 4 4 4 5 5 5 7 8 8 4 4 5 3 3 2 0 1 2 2 3 3 3 4 3 4 5 5 5 7 9 6 3 5 4 1 1 3 2 1 1 3 6 8 8 3 4 7 8 4 4 7 5 3 1 4 7
23 24 24 25 25 24 24 24 23 23 24 25 25 25 20 14 14 15 9 3 3 6 9 10 7 2 2 3 3 3 2 3 3 3 3 4 6 9 10 6 2 4 4 3 3 2 2 2 2 2 1 1 3 3 3 4 5 6 5 7 8 6 3 3 4 2 3 2 1 2 1 3 7 6 5 2 5 10 9 1 6 6 6 6 3 4 7
23 23 24 24 24 24 23 23 23 23 23 24 25 24 19 14 16 15 7 4 5 5 7 10 9 5 4 3 2 1 0 2 2 1 2 3 2 4 8 5 3 3 3 3 3 3 3 2 0 1 2 2 2 3 3 4 4 4 5 6 5 4 3 3 5 4 3 1 1 1 1 5 6 3 6 5 7 9 5 5 7 4 6 7 6 5 7
22 22 23 24 24 24 23 22 23 22 22 24 24 22 17 14 17 16 9 4 3 5 11 15 12 7 7 7 4 1 2 2 2 2 3 3 2 4 4 3 3 3 4 4 3 2 2 3 2 0 1 1 1 1 2 3 3 3 5 6 5 3 2 2 4 4 3 3 2 0 1 6 3 4 6 6 7 3 4 6 4 2 4 6 7 5 6
22 22 23 24 24 23 23 22 22 22 22 22 22 22 20 15 15 16 12 6 4 7 13 13 9 9 11 8 5 5 1 3 3 0 1 3 4 3 2 2 3 4 4 4 4 3 3 3 4 2 1 2 2 1 1 1 4 4 5 4 4 4 3 2 3 4 2 2 1 2 2 6 2 5 5 5 4 5 6 3 1 2 3 5 5 3 2
22 22 22 23 23 23 23 22 21 21 21 20 20 21 20 17 16 17 16 12 6 4 7 9 10 15 18 16 14 14 8 1 4 2 1 4 4 2 2 2 3 2 3 3 2 2 3 3 3 2 2 2 2 2 2 1 1 1 3 3 3 2 3 3 3 2 3 2 2 3 4 4 1 5 3 2 3 4 2 1 2 4 4 4 4 5 4
22 22 21 22 23 23 22 22 21 21 20 20 20 18 18 21 22 20 20 16 9 8 15 22 24 26 31 31 29 27 17 2 7 6 3 2 4 2 4 1 2 1 1 2 2 1 3 2 3 3 1 2 3 2 3 3 2 5 3 2 2 2 4 5 2 0 2 4 4 4 2 2 5 6 4 3 3 3 4 5 4 4 4 2 4 6 6
22 22 21 22 23 23 22 21 21 21 20 20 19 17 18 24 25 23 21 15 11 13 22 26 24 22 23 25 26 25 18 6 8 7 5 3 2 2 1 1 1 0 2 0 2 1 2 1 1 2 1 1 2 3 3 3 0 3 4 1 2 1 1 3 3 3 3 2 1 1 3 5 6 6 5 5 5 6 6 6 5 4 5 4 5 7 6
22 22 22 22 23 23 22 21 21 21 20 19 19 19 21 24 23 21 17 9 5 7 10 10 8 8 11 19 21 9 8 6 4 4 4 5 3 1 0 2 2 0 3 4 3 2 1 0 1 2 2 2 2 2 2 2 1 1 2 2 1 3 4 2 3 4 3 2 3 1 5 5 5 6 5 5 6 7 6 6 5 5 6 6 5 6 7
22 22 22 22 24 23 22 21 21 21 21 20 20 20 21 21 18 15 12 6 3 4 4 4 7 11 17 28 24 10 4 5 2 5 6 6 6 3 2 4 6 5 4 6 4 3 2 1 0 0 2 2 1 1 1 1 1 1 1 2 1 1 3 3 2 4 4 2 2 3 6 4 3 4 2 2 5 7 6 5 5 6 6 7 6 6 7
23 22 22 23 24 23 22 21 21 21 21 21 22 21 21 23 21 15 12 9 5 4 3 3 8 16 24 26 22 20 19 12 4 5 5 9 8 7 5 3 5 6 5 5 4 4 4 3 2 2 2 2 1 2 1 3 2 1 0 2 2 2 1 2 1 4 4 2 2 6 6 5 6 5 4 3 5 6 6 6 6 6 6 7 7 6 6
23 22 23 24 24 23 23 21 21 22 22 22 23 23 24 27 23 15 12 9 4 2 3 3 6 15 21 19 21 26 23 13 5 1 4 9 6 7 8 3 4 4 3 3 1 2 1 0 1 3 2 2 3 3 3 4 1 2 1 3 2 2 1 3 3 5 2 2 2 2 3 1 2 4 5 5 6 7 6 4 5 4 4 5 6 7 6
23 23 24 25 24 23 22 21 21 22 23 24 26 27 24 22 16 11 12 13 8 3 3 4 6 12 15 16 20 25 25 21 15 6 1 7 8 3 6 5 5 4 2 3 3 1 1 0 2 1 1 2 2 2 2 1 2 3 1 3 1 2 1 1 3 3 3 4 4 3 4 2 1 3 5 5 5 6 5 3 2 3 4 5 5 6 6
24 25 25 25 24 23 22 22 22 21 21 24 25 23 15 7 3 1 4 6 6 5 3 4 6 7 8 12 19 22 23 20 13 7 1 5 7 5 4 4 4 3 2 1 1 1 2 2 2 1 1 2 2 1 1 2 2 1 3 3 3 2 2 4 6 4 3 3 3 4 5 3 1 2 5 5 6 7 5 4 5 4 4 5 5 4 5
26 26 26 25 25 25 24 23 21 19 19 20 18 13 6 3 6 5 5 8 10 6 2 3 4 4 5 9 11 14 19 17 6 3 1 4 4 5 6 5 4 2 1 1 1 0 2 2 1 1 1 1 3 1 1 1 2 2 3 4 4 4 1 4 5 5 4 4 3 3 5 5 3 2 5 6 6 6 5 4 5 5 4 5 4 3 3
27 27 27 27 27 27 24 22 19 18 17 14 8 3 1 1 4 6 5 10 15 9 2 3 4 4 5 5 5 9 16 14 4 2 0 2 3 5 7 6 3 1 1 1 1 1 2 1 1 1 1 1 3 1 1 2 3 2 4 5 4 3 4 5 5 5 5 4 4 3 4 4 2 3 5 6 6 5 4 3 3 5 6 5 4 3 2
28 28 29 30 28 26 23 21 20 19 16 12 9 9 10 9 7 7 10 16 17 7 1 2 3 3 3 4 6 12 14 8 2 2 3 3 3 5 6 4 2 2 3 2 0 1 1 1 1 0 0 1 3 1 1 2 3 4 6 6 3 5 6 5 4 5 4 3 4 4 4 5 5 4 5 4 4 5 4 3 3 5 7 6 5 5 5
29 31 31 30 27 24 24 23 22 20 18 15 17 20 19 15 12 13 14 15 10 5 3 2 2 3 3 3 7 12 12 5 1 3 3 2 2 2 3 2 1 0 2 2 1 2 1 1 2 0 1 1 3 2 1 1 4 7 7 5 4 6 6 5 5 5 4 4 4 5 4 4 4 5 4 5 4 4 3 2 2 3 4 5 3 3 4
32 32 30 27 25 25 25 23 17 14 12 11 14 16 14 9 7 5 4 6 5 4 3 2 1 3 4 3 4 7 7 3 2 2 3 3 2 1 1 2 1 2 1 0 1 1 2 0 2 1 1 1 3 2 1 3 4 6 6 5 6 7 6 5 4 5 5 6 5 5 5 5 5 4 5 6 6 4 4 2 2 2 2 3 1 3 3
32 29 26 26 26 23 18 12 6 4 5 7 9 10 9 8 8 5 4 8 4 1 2 3 2 3 3 3 4 5 4 3 3 3 2 2 2 1 1 1 2 1 2 1 0 1 2 1 1 1 1 0 2 1 3 4 2 1 3 5 6 6 5 4 5 5 6 6 6 5 5 5 4 4 5 6 4 2 2 3 1 2 2 4 2 5 6
29 25 24 24 20 14 7 2 2 3 2 4 7 8 8 9 10 6 4 7 5 3 2 1 2 3 3 3 4 4 3 3 4 3 1 1 1 1 1 2 0 2 1 1 1 1 2 1 1 1 1 0 1 3 4 3 4 6 6 4 5 6 5 4 6 7 7 7 6 3 2 3 4 5 6 5 4 3 3 4 2 1 2 5 3 6 7
24 23 22 19 12 5 2 2 3 1 7 11 13 13 11 10 7 5 5 7 7 6 2 2 3 4 2 3 4 4 4 4 3 3 1 1 1 1 1 3 1 2 2 1 2 3 2 0 2 1 1 3 3 3 3 6 6 6 5 5 5 6 6 5 7 9 7 6 5 2 3 3 3 5 6 5 4 5 2 3 3 1 2 3 1 6 9
22 20 17 12 6 2 1 2 4 11 15 15 12 9 6 4 2 3 3 3 4 5 3 2 4 3 2 3 5 4 4 4 3 3 2 1 1 1 1 1 1 1 1 2 3 1 1 1 2 2 3 4 3 3 4 6 6 5 6 5 4 3 5 6 7 8 7 5 4 4 4 4 4 5 6 6 6 5 2 2 3 2 3 2 3 7 9
19 16 11 7 4 1 3 8 14 18 16 10 5 3 2 2 1 2 2 2 3 3 3 3 4 4 4 5 5 5 6 5 3 3 3 2 1 1 1 1 1 1 1 2 3 2 2 1 1 1 3 2 2 3 3 5 6 5 6 5 4 4 5 6 6 7 6 5 4 3 3 5 5 4 4 5 6 5 3 2 3 2 4 4 5 8 7
16 11 6 4 3 6 13 19 18 13 7 3 2 2 1 1 2 2 2 2 2 2 3 4 4 4 5 6 6 5 4 3 1 0 2 2 1 1 1 1 1 1 1 2 2 1 1 1 0 1 2 1 4 5 4 6 6 5 5 5 5 5 6 6 6 6 5 4 5 4 3 4 6 6 5 5 5 5 4 2 1 1 3 6 8 8 9
12 8 5 6 11 18 23 21 12 4 2 1 1 1 1 2 2 1 1 2 2 2 3 3 3 3 5 6 5 5 3 1 1 2 1 2 2 1 1 1 1 2 1 3 2 1 1 1 0 1 2 2 5 6 5 6 6 5 5 5 5 6 7 7 6 5 5 5 4 3 4 5 7 6 5 6 5 4 4 4 2 4 7 9 11 12 15
12 12 14 18 21 21 17 10 4 2 1 0 1 2 2 2 2 1 1 2 2 2 2 3 3 4 5 4 3 4 3 1 1 2 1 2 2 1 1 1 1 1 1 3 1 2 0 1 0 2 4 4 5 6 6 6 6 5 6 6 6 6 6 5 5 5 5 3 1 1 3 6 7 6 5 6 5 5 4 4 5 8 12 14 15 16 18
18 17 15 13 11 8 5 2 2 1 1 1 1 1 1 2 2 1 2 2 1 1 2 2 1 1 1 2 0 2 2 1 1 1 0 1 1 1 1 1 1 1 2 1 1 1 1 1 1 3 4 4 6 6 6 6 6 6 6 5 4 4 4 3 5 6 3 1 0 5 7 7 6 8 9 9 8 6 6 8 10 12 15 17 17 16 17
18 12 7 4 3 2 1 1 0 1 1 1 2 2 2 3 2 2 3 3 2 2 3 2 1 2 2 1 1 1 1 1 1 0 0 1 1 1 1 1 2 2 1 1 1 1 2 3 3 5 5 5 6 6 6 7 6 6 6 5 3 3 2 1 3 5 2 2 3 9 9 5 5 8 11 11 9 7 7 11 13 14 16 17 16 15 16
10 4 2 1 2 1 1 0 1 2 2 2 2 3 3 3 4 4 4 3 3 3 1 2 2 2 3 1 0 1 1 1 1 0 1 0 1 0 1 2 1 0 1 1 1 1 3 3 1 4 6 6 6 6 6 6 6 6 6 5 3 2 1 1 2 5 2 1 3 8 7 4 4 7 9 9 7 5 7 11 12 13 15 16 15 13 13
4 2 2 2 2 2 1 1 2 2 2 2 3 4 4 4 5 4 2 1 4 5 3 3 3 2 2 2 1 1 1 1 1 1 1 1 0 1 1 1 1 1 1 1 1 2 4 3 1 5 6 6 6 6 6 6 7 7 7 6 4 3 0 2 2 2 2 1 3 6 6 6 6 7 9 9 6 4 6 11 12 10 11 14 15 13 12
3 2 2 1 2 2 2 2 3 3 3 3 4 5 5 4 4 3 2 1 2 4 3 3 3 3 2 0 1 2 2 0 1 1 0 2 1 2 1 2 1 0 1 0 2 4 3 2 2 4 4 5 6 6 6 6 7 7 6 6 6 5 3 0 2 1 2 3 3 3 4 7 9 8 8 9 8 6 8 12 11 7 9 14 17 15 12
2 2 1 2 2 2 2 2 3 5 5 5 5 5 4 3 3 3 1 2 2 3 4 3 3 3 3 1 1 1 2 1 0 1 0 1 0 1 2 1 0 1 1 2 4 4 2 2 3 4 4 4 5 5 6 6 7 7 7 7 6 6 5 4 2 2 0 3 4 3 3 7 10 9 7 8 10 10 11 13 10 6 9 15 18 15 11
4 2 2 2 2 2 3 4 5 6 6 6 6 5 3 2 2 2 4 3 3 3 4 2 2 1 2 2 1 1 2 1 0 1 0 1 1 0 1 0 1 1 2 3 3 2 2 2 3 5 6 5 5 4 5 6 6 6 6 7 6 6 6 6 5 2 0 0 4 6 5 5 7 9 8 7 9 11 13 13 9 5 8 16 18 14 10
3 2 2 2 3 3 4 4 5 6 7 7 7 6 3 2 2 3 4 3 3 4 4 3 2 1 1 2 1 1 2 1 1 0 0 0 1 0 0 1 1 1 3 4 2 1 2 2 4 6 5 5 6 5 5 5 6 6 5 5 6 7 6 6 6 6 2 3 2 6 8 5 4 6 8 10 11 14 14 13 10 7 7 13 17 14 10
2 2 2 3 4 4 3 4 5 6 7 8 7 6 3 2 2 3 4 4 4 4 3 2 1 0 1 1 1 1 2 1 0 1 1 1 1 1 0 1 1 1 2 4 4 3 2 3 5 5 5 5 6 6 5 4 3 5 6 5 6 7 7 7 8 8 6 3 2 3 7 7 4 3 8 14 17 15 12 10 10 8 5 8 15 15 11
2 2 2 3 4 4 4 5 5 6 7 7 6 5 4 2 1 1 2 4 4 3 2 2 1 1 1 2 1 1 1 1 1 0 1 0 1 2 1 2 4 3 2 3 4 4 3 3 5 5 5 5 5 6 7 6 5 1 3 5 6 6 6 7 8 8 7 5 3 1 3 4 3 2 6 12 14 11 7 8 10 8 4 4 9 14 13
Wind_Direction
349 350 351 352 352 353 353 354 355 357 359 357 348 336 315 269 282 281 247 181 154 152 245 235 233 243 256 268 272 283 284 266 275 277 270 266 251 240 248 253 255 260 256 264 285 284 247 200 222 177 165 197 221 217 212 223 240 248 211 192 198 125 105 129 172 182 173 197 212 207 228 255 202 195 206 166 176 182 169 182 185 182 194 130 113 133 259
350 350 350 351 353 354 353 353 354 356 358 356 344 328 300 290 284 267 215 179 155 177 241 235 248 250 264 274 272 274 271 259 260 267 261 252 258 250 244 247 241 248 267 272 277 282 261 210 234 214 152 191 221 211 203 215 233 242 196 165 249 233 133 123 144 139 124 200 224 215 228 243 214 196 204 207 209 188 199 232 90 152 211 146 120 180 246
350 350 350 352 353 354 353 353 353 353 356 356 346 312 289 300 264 230 184 177 174 209 244 264 263 269 279 276 276 273 267 257 243 243 248 245 256 263 258 267 265 263 274 272 271 276 264 215 234 238 172 181 212 209 200 208 226 242 188 141 134 206 153 113 134 153 169 197 208 207 215 225 241 218 204 218 232 195 192 208 87 159 226 147 123 181 235
350 350 351 352 353 354 353 353 352 351 354 357 345 297 293 327 277 298 162 180 205 237 259 267 256 273 292 278 275 250 250 271 240 226 233 236 241 257 270 278 283 279 271 273 282 274 254 222 214 226 198 174 194 203 199 204 221 229 184 143 119 80 199 133 133 158 181 194 197 158 160 185 213 227 216 218 231 209 143 109 130 182 187 152 166 161 166
349 350 351 351 353 355 354 354 353 351 355 357 344 279 247 312 297 328 320 243 239 238 242 246 239 248 274 282 293 274 282 298 250 198 212 225 225 243 260 256 263 280 282 291 294 276 249 223 204 209 225 192 179 193 197 206 220 215 176 130 104 76 287 217 153 185 195 187 187 171 178 199 201 212 230 223 226 223 137 119 191 179 117 111 219 149 147
349 350 352 352 353 355 355 355 353 352 357 359 345 267 209 297 305 342 331 300 269 256 268 284 271 242 214 247 295 288 292 300 272 178 225 241 222 224 256 250 249 266 278 283 278 278 306 303 215 144 264 228 171 186 195 201 207 188 142 69 90 102 242 251 239 287 264 218 209 188 183 198 196 207 230 213 205 216 186 154 192 158 127 161 194 154 154
349 350 352 351 353 355 355 356 355 355 359 2 351 295 244 322 296 314 332 282 257 270 277 286 285 251 215 231 272 273 285 288 263 203 222 246 229 214 252 292 288 292 301 291 265 231 305 290 236 41 323 294 40 154 194 198 212 155 122 76 70 90 267 289 31 294 276 250 224 192 176 186 189 204 230 210 184 202 197 171 170 127 141 159 159 155 168
349 350 352 352 353 355 355 356 357 357 0 7 1 319 325 348 298 292 299 260 256 273 277 277 281 258 209 223 256 246 265 276 268 232 211 225 232 204 227 285 304 319 316 292 260 144 109 180 155 94 282 263 13 359 173 163 214 154 131 133 25 66 251 317 19 283 278 283 231 185 169 175 183 198 222 219 184 190 193 183 161 100 131 151 138 142 184
349 349 351 352 353 354 356 357 358 359 2 5 356 329 346 332 298 285 287 289 289 299 296 286 285 283 176 213 264 275 267 268 276 282 230 215 238 227 248 289 301 311 310 301 331 40 24 8 354 305 248 231 232 244 188 141 157 166 135 136 357 101 108 336 18 262 280 343 8 14 124 122 156 207 216 208 180 171 191 191 171 142 143 134 124 140 198
349 350 350 351 353 354 356 357 358 0 3 3 348 321 335 328 307 295 284 286 303 297 291 304 318 330 191 230 260 261 261 272 315 343 259 220 237 269 266 288 302 307 310 315 336 341 336 343 339 314 272 261 252 250 244 156 145 156 118 114 139 129 114 341 78 135 286 331 10 1 39 55 358 264 223 192 169 166 175 174 174 163 145 135 147 187 197
349 349 349 351 352 352 354 356 357 359 0 359 344 309 313 318 310 310 302 268 302 327 323 340 353 322 296 298 294 256 260 301 3 352 295 288 317 308 278 278 302 297 290 290 299 309 311 302 263 240 243 255 255 254 255 184 157 166 127 115 134 125 123 256 132 110 285 308 13 21 40 73 252 264 262 135 135 161 185 185 183 173 143 141 167 181 155
349 349 349 350 350 351 353 353 354 356 355 351 336 309 307 314 307 299 316 307 309 325 343 328 308 291 292 312 332 321 316 334 335 300 299 304 309 305 288 283 308 275 285 306 313 303 294 275 244 227 229 243 242 237 251 212 164 166 143 124 124 105 106 286 317 114 241 320 39 46 24 219 235 264 296 81 91 101 145 209 203 169 143 130 132 150 152
348 348 348 349 350 350 351 352 352 353 352 348 336 314 310 315 304 282 311 307 299 321 338 314 305 324 350 356 359 355 332 317 309 300 299 298 297 295 281 249 222 245 278 297 292 280 269 258 236 221 221 229 222 210 227 221 173 164 152 128 124 123 124 347 327 156 170 48 72 141 231 256 285 309 333 58 62 61 61 1 297 205 154 153 163 189 188
347 347 348 348 349 349 349 351 351 350 350 346 337 320 312 313 305 295 314 314 301 309 310 305 324 349 2 4 358 342 322 322 325 324 316 301 292 292 287 249 237 252 265 276 277 284 313 305 269 223 212 210 186 188 214 215 177 167 165 141 131 134 130 93 353 289 134 127 155 175 305 314 322 325 325 99 98 100 101 92 287 291 153 162 171 184 189
347 346 347 347 347 348 348 348 349 350 350 347 339 326 318 318 313 301 298 305 310 306 300 356 356 338 338 358 1 337 327 345 340 322 317 304 286 296 287 255 254 270 279 286 290 288 302 280 253 202 184 165 154 190 207 186 160 172 176 153 145 153 153 136 139 285 86 110 120 56 32 286 269 267 259 195 129 130 118 114 282 301 335 126 151 169 186
347 346 346 347 346 347 347 347 349 349 348 348 343 330 326 333 326 311 303 290 298 295 283 301 320 304 301 345 343 319 314 328 327 333 333 324 337 334 297 257 261 340 344 318 284 264 357 275 232 167 156 165 169 186 181 122 140 190 186 149 147 158 158 126 120 263 290 110 135 200 175 230 244 246 253 256 105 102 89 67 286 287 321 356 101 180 195
347 345 345 345 344 345 346 345 347 348 347 350 344 328 327 346 340 321 310 283 292 278 269 289 312 291 244 279 287 295 314 303 316 358 333 320 344 330 303 283 355 18 3 332 298 320 2 310 301 31 23 203 151 159 164 127 151 193 183 152 151 161 172 135 127 218 245 142 170 236 180 242 252 231 207 182 88 82 81 87 260 285 333 340 310 227 210
345 344 344 344 343 344 345 344 345 346 346 348 342 326 322 342 344 331 314 291 305 274 267 305 322 298 287 307 284 228 262 310 346 19 287 293 320 294 295 318 4 350 332 348 359 357 341 308 333 59 279 270 101 135 178 154 164 184 163 153 155 152 166 161 158 201 241 186 201 246 216 257 265 192 144 123 73 67 95 200 235 286 330 326 308 261 221
341 343 343 342 341 342 343 343 343 345 344 347 345 331 322 340 350 341 322 294 301 282 290 305 306 287 307 335 328 240 141 91 36 360 324 321 286 263 278 333 18 357 336 355 16 5 323 303 308 73 217 302 71 146 172 159 177 173 142 146 158 153 157 168 174 195 210 190 190 107 284 272 288 92 101 85 77 103 219 223 224 264 314 324 323 289 223
337 341 341 340 340 340 341 341 341 343 343 346 345 330 319 332 350 342 328 312 299 291 286 282 280 298 316 322 302 284 286 109 122 190 298 276 280 311 358 352 348 351 355 16 19 353 334 318 319 1 41 312 312 33 24 212 185 156 128 138 161 158 155 180 202 196 169 164 178 134 221 261 294 79 67 53 109 191 233 271 310 343 6 10 6 355 132
334 337 338 339 338 337 339 338 339 341 340 344 344 329 315 320 337 339 333 323 310 291 283 281 295 307 301 289 277 275 280 107 125 152 219 265 288 27 96 254 307 357 8 23 23 325 328 323 317 354 25 318 330 46 36 355 295 20 82 125 154 152 148 169 202 192 137 135 217 202 217 252 36 89 111 139 162 197 207 71 24 11 23 46 57 42 53
332 334 336 336 335 336 337 336 336 338 337 339 341 329 308 310 324 334 329 312 277 247 270 283 292 292 286 284 281 272 266 238 109 124 144 259 319 49 126 200 342 19 317 11 64 340 327 329 323 340 13 353 340 354 46 57 340 322 356 112 172 201 173 163 160 88 128 158 203 219 222 30 56 80 113 117 71 28 48 76 64 26 11 32 88 74 52
331 332 333 333 332 333 333 333 334 335 334 336 337 325 306 305 316 329 326 302 266 259 267 274 285 285 280 291 293 272 250 198 121 131 144 139 355 349 139 126 28 302 264 259 131 198 283 265 331 331 337 15 336 327 20 61 57 302 332 304 194 167 142 144 113 52 57 81 234 181 82 58 58 69 68 64 52 32 38 57 53 28 12 26 85 104 89
329 330 331 331 330 330 331 331 331 330 331 332 329 319 307 301 308 324 325 304 288 303 286 279 293 279 286 318 324 289 205 174 147 171 169 139 112 357 259 160 148 162 283 261 220 163 99 356 359 346 329 335 336 347 38 61 162 241 319 313 47 40 17 49 103 99 83 2 305 54 94 83 74 71 48 37 52 49 44 50 41 25 21 27 60 102 104
327 328 329 329 328 328 328 328 328 327 328 328 325 319 309 299 303 318 319 299 293 318 313 307 293 291 315 330 334 345 352 316 245 179 195 200 183 172 196 198 188 188 238 251 220 131 116 199 220 315 273 283 332 36 37 301 214 146 17 319 315 356 345 3 91 108 113 160 279 62 77 61 53 70 68 80 84 69 50 38 31 30 25 15 34 86 102
325 326 327 327 326 325 325 326 326 325 325 324 322 316 303 295 297 297 287 279 272 259 267 282 288 308 329 334 326 322 320 302 224 173 247 262 230 185 185 232 225 212 229 245 208 172 185 199 164 165 212 216 126 94 247 260 261 101 52 281 236 178 301 320 53 69 62 32 10 45 49 16 3 17 34 77 95 86 61 24 8 26 31 13 26 72 102
323 323 325 325 324 322 322 324 324 324 324 323 319 312 300 295 294 282 261 261 278 311 295 266 288 314 322 316 308 314 319 310 291 301 311 305 283 182 174 226 273 251 262 300 280 186 166 115 164 170 175 169 153 158 212 239 235 84 13 312 353 88 10 335 42 75 67 269 267 92 106 106 3 13 29 52 76 85 76 27 357 28 53 38 44 64 82
322 323 323 322 321 320 320 321 322 323 324 322 319 314 306 298 292 273 251 250 252 273 300 283 289 305 309 304 306 314 317 308 293 268 275 327 315 241 189 218 250 258 288 324 327 344 44 326 236 195 128 139 168 194 219 223 50 50 342 299 333 116 124 75 104 130 185 216 205 139 117 131 307 8 32 48 59 65 64 36 22 61 75 65 67 80 89
320 320 320 320 319 318 317 317 320 322 324 326 326 324 323 335 12 278 249 261 271 278 290 299 290 285 294 304 304 306 309 300 270 214 163 326 299 280 279 256 229 232 245 253 320 315 250 231 216 181 166 149 149 242 260 96 71 322 238 220 217 214 172 137 137 145 144 140 142 125 118 146 216 32 49 48 47 51 50 32 30 50 74 73 74 88 105
318 318 318 318 316 314 314 315 319 324 328 329 329 322 320 55 88 116 104 50 22 1 310 295 296 282 289 296 292 293 302 304 286 152 35 314 270 272 288 271 233 214 251 329 12 232 250 276 6 40 257 124 109 108 292 107 125 232 225 208 215 229 193 114 119 130 126 112 108 114 130 155 176 92 67 60 53 59 66 43 25 31 46 65 77 73 85
318 316 315 314 312 312 315 316 321 328 328 324 328 330 251 116 117 137 106 18 360 352 308 251 278 288 287 276 262 276 288 292 305 88 209 262 269 274 272 270 262 177 123 359 326 239 251 283 55 54 328 48 92 103 300 98 119 197 230 229 213 169 126 104 103 119 129 125 120 112 102 102 98 73 70 61 46 52 75 75 32 24 20 32 74 79 54
316 314 314 313 313 313 314 316 319 320 312 292 269 256 256 264 268 266 295 319 326 325 257 263 286 297 291 275 290 300 296 289 311 329 253 211 219 250 257 265 260 173 127 105 15 282 263 211 156 141 245 120 99 51 353 99 143 196 221 225 197 138 124 123 121 119 112 110 130 128 80 55 68 97 104 89 60 54 69 74 44 25 6 360 34 54 36
314 314 314 314 315 315 314 315 315 309 298 282 267 265 270 278 285 284 289 297 293 250 219 272 287 268 274 289 302 305 303 291 258 279 265 215 196 227 248 256 249 357 60 88 149 251 257 152 109 32 267 139 104 79 315 218 187 200 210 195 147 125 119 119 127 127 99 69 91 129 134 116 110 114 115 106 82 48 31 50 76 45 344 327 11 65 49
314 316 317 317 317 316 314 313 310 297 283 269 266 276 287 295 302 297 251 233 237 239 242 257 259 260 278 304 297 290 294 295 269 260 266 270 257 224 260 297 349 22 11 191 198 284 308 358 119 150 276 344 87 93 283 258 216 206 201 167 124 113 117 122 129 123 99 79 82 109 126 125 114 96 85 85 74 25 344 344 120 129 286 283 194 112 93
318 320 320 318 318 318 317 315 301 262 243 241 257 280 288 279 288 301 196 187 198 281 242 220 241 274 292 309 293 285 302 312 276 246 231 249 256 220 186 20 17 329 242 217 159 291 279 244 161 187 252 57 99 149 242 248 256 103 143 137 116 106 115 135 136 120 104 97 100 106 118 128 130 123 115 114 132 194 313 339 122 152 275 278 208 114 88
323 324 323 321 321 319 317 308 177 184 239 280 289 298 292 277 283 288 221 208 228 261 268 278 268 256 273 296 285 292 320 308 273 259 194 155 251 251 121 93 333 263 239 102 109 242 248 208 104 28 313 221 198 229 212 169 83 60 72 101 110 106 104 110 121 117 100 89 92 102 164 175 159 141 135 133 132 117 50 351 314 178 300 294 222 130 103
329 328 326 326 325 311 277 152 130 315 310 308 305 299 288 277 273 255 224 224 228 221 224 316 278 249 266 284 272 293 324 314 293 301 321 131 209 265 84 97 212 274 353 11 227 215 226 170 110 110 263 230 200 186 130 105 94 83 80 81 94 109 111 108 113 113 104 103 122 187 238 211 157 135 132 124 105 102 93 311 291 240 282 295 185 122 117
336 335 331 326 317 296 131 61 344 319 310 306 305 297 274 248 233 222 210 203 201 193 186 240 252 239 247 263 266 289 306 307 328 333 313 315 19 342 22 86 194 203 11 295 258 197 84 19 128 161 244 239 178 133 99 95 97 89 79 70 65 100 125 128 122 118 122 140 171 212 230 206 163 136 133 136 129 122 112 330 339 360 340 334 114 121 120
342 339 333 322 316 310 308 318 322 319 311 300 288 271 236 192 196 232 212 180 186 195 195 215 232 226 221 240 263 274 264 268 324 348 322 321 15 13 8 354 335 56 63 294 295 10 29 304 208 201 263 260 135 120 102 96 92 76 64 56 38 54 98 115 112 114 129 145 156 168 176 164 148 127 125 140 134 116 90 354 332 343 359 32 101 121 117
346 341 330 329 343 319 311 317 324 326 315 285 220 200 229 216 196 203 210 196 195 204 205 208 218 215 208 222 255 275 262 239 209 316 296 290 250 145 68 338 282 72 59 281 282 41 76 264 279 345 298 260 140 132 103 85 85 72 51 40 39 56 81 93 91 87 85 82 80 66 64 105 115 102 92 108 123 132 143 167 297 353 56 75 96 112 113
343 344 322 305 306 305 308 315 319 307 272 263 219 207 241 237 224 224 238 229 224 225 210 197 210 226 211 209 230 255 264 238 166 148 195 283 275 85 64 271 226 83 48 262 254 109 116 256 320 192 238 202 142 123 96 81 84 71 45 39 47 61 69 75 80 77 67 68 71 31 21 73 94 90 93 110 116 124 146 151 119 79 81 86 98 109 113
306 300 292 292 296 296 297 300 287 232 218 272 250 239 226 224 234 243 229 225 240 251 219 194 204 219 201 181 206 248 252 278 49 76 82 281 280 113 131 263 4 68 224 240 239 78 96 286 336 229 221 181 127 112 103 100 100 85 67 59 51 49 56 64 73 79 75 69 63 36 73 85 80 64 73 98 91 68 79 113 115 102 96 97 104 110 113
310 303 291 285 285 283 271 245 221 211 181 196 229 241 245 244 243 238 229 231 247 253 236 230 309 301 177 130 102 284 258 177 107 93 181 244 271 62 74 47 34 242 243 259 44 50 263 249 195 197 196 151 112 107 114 116 108 94 87 80 56 42 54 72 88 100 107 281 337 94 90 81 72 70 69 67 58 55 73 86 91 98 105 107 106 110 118
316 304 274 241 240 246 247 266 236 181 201 218 205 204 234 246 241 241 248 250 245 236 222 184 106 303 274 219 181 248 251 181 111 89 245 247 251 80 93 206 230 235 266 16 58 230 252 244 196 174 158 124 111 118 125 124 118 110 103 97 80 60 48 62 114 127 156 270 95 100 92 65 66 83 78 65 51 52 81 92 91 97 108 112 108 110 123
310 288 234 251 283 273 222 232 215 208 227 234 214 211 231 244 242 243 247 261 287 296 294 121 136 223 266 287 67 217 253 40 54 106 222 293 359 106 192 219 240 340 39 7 331 281 276 277 221 131 127 127 132 135 132 129 129 126 117 110 101 88 4 322 125 127 134 350 94 110 111 98 90 92 90 84 70 59 84 100 100 101 109 113 110 111 122
282 274 317 306 284 273 274 265 245 224 221 220 218 223 233 244 248 242 227 285 320 323 349 46 44 1 340 352 329 263 216 115 108 243 187 95 21 250 214 143 28 21 27 12 341 283 274 286 51 116 134 143 137 130 128 127 130 129 129 133 142 148 191 345 30 105 138 137 110 116 125 125 115 109 110 113 108 91 104 112 112 114 120 121 120 126 136
269 282 299 286 277 274 255 242 248 263 268 260 248 242 242 253 265 258 204 138 344 341 353 18 18 359 336 283 251 277 280 128 175 251 182 111 199 268 27 67 69 320 89 147 254 259 270 306 70 106 127 129 126 126 123 116 116 123 131 138 145 151 158 264 328 333 151 133 106 97 116 124 124 121 123 126 126 121 121 125 127 135 142 137 136 144 155
297 307 282 273 276 255 244 274 303 296 286 280 271 258 246 250 278 303 14 71 49 355 334 344 13 360 327 288 163 250 287 303 261 261 217 111 165 310 26 57 254 240 181 219 239 239 217 170 135 109 87 82 101 121 121 109 106 115 129 142 152 158 161 173 217 275 240 124 120 110 108 124 133 140 143 141 138 134 132 133 137 146 145 140 142 153 166
271 274 261 279 287 278 290 311 311 298 292 292 286 274 262 260 291 339 7 14 356 325 316 335 75 46 305 288 208 218 256 265 73 320 359 97 121 320 59 88 264 284 266 254 246 216 190 175 116 91 74 51 46 77 112 117 113 117 133 148 154 154 158 169 178 182 351 107 153 149 138 134 148 152 149 143 140 139 139 141 146 154 146 142 146 161 176
257 253 240 254 269 285 303 316 314 311 316 318 314 312 329 4 21 15 4 350 349 358 1 13 63 73 298 304 338 315 273 230 169 174 264 228 160 129 78 239 217 233 269 279 281 133 129 104 77 80 78 56 42 52 85 109 118 126 136 146 149 149 156 162 153 143 151 284 250 144 142 157 187 172 159 155 149 142 140 145 153 166 161 152 155 168 180
246 241 237 241 251 273 301 312 308 304 304 306 308 316 339 36 59 22 347 344 8 24 12 340 300 261 261 246 230 253 264 271 106 131 217 240 187 111 73 288 276 292 316 327 347 23 64 81 85 84 78 62 53 53 56 66 105 140 146 146 144 144 147 146 139 140 162 227 286 114 142 172 207 189 152 148 142 134 130 136 147 160 179 169 165 174 185
234 248 276 263 254 265 279 285 288 290 291 292 295 304 322 352 86 100 30 25 29 14 325 302 296 279 257 246 233 218 242 315 352 123 188 222 53 67 34 313 310 320 1 37 32 10 3 39 70 79 77 69 63 58 46 26 9 21 137 145 144 136 134 140 141 141 155 182 201 135 133 159 173 141 131 135 135 132 133 141 147 161 215 221 179 178 187
Height
807 804 802 799 796 794 792 788 785 782 779 776 774 772 770 768 765 760 759 760 760 764 767 763 761 759 753 749 747 744 744 745 741 736 737 735 730 728 728 725 723 718 712 710 706 697 688 684 683 683 686 686 679 671 670 672 673 674 676 675 671 673 686 702 707 700 692 687 682 681 681 684 689 690 689 693 698 702 709 714 713 716 721 719 731 749 738
807 804 802 799 796 794 791 789 785 782 780 778 776 773 770 768 764 759 759 759 760 764 764 761 760 757 752 750 749 746 743 742 740 738 735 731 727 726 723 719 717 713 708 706 702 697 692 686 680 678 682 681 672 666 668 671 673 673 673 674 677 682 689 700 710 714 710 706 703 697 690 691 694 691 688 691 694 696 701 704 708 718 720 716 733 752 739
806 804 802 799 796 794 791 789 785 782 780 778 776 774 771 768 763 758 758 759 760 761 759 759 759 756 755 754 750 748 744 737 734 735 733 728 725 724 719 713 710 707 706 705 699 693 691 686 680 677 677 674 668 665 665 668 671 670 667 668 676 686 689 694 709 724 730 728 721 710 700 697 696 691 688 691 692 696 703 708 716 724 717 711 728 744 734
806 804 801 799 796 794 791 788 785 781 779 777 775 773 771 770 765 760 759 759 759 758 756 758 759 757 757 754 747 746 744 733 726 727 729 726 723 722 717 711 709 707 704 705 700 689 682 680 678 677 676 672 667 663 663 666 668 667 666 667 674 685 687 688 700 711 716 715 707 696 693 699 702 696 691 692 691 694 701 710 719 720 715 717 725 729 728
806 804 802 799 796 794 791 787 784 780 777 775 774 772 771 770 768 765 763 760 758 757 755 755 757 758 758 753 743 741 740 731 722 722 723 720 718 719 714 709 711 708 703 704 701 686 676 675 676 675 673 669 664 661 662 665 666 667 669 668 674 687 691 688 693 697 696 694 691 687 690 697 701 698 695 694 690 692 701 711 714 710 715 729 728 720 725
806 804 802 799 796 794 791 787 783 779 776 774 772 771 769 769 768 766 765 762 759 757 754 754 756 757 757 752 744 742 740 732 723 720 719 715 714 716 713 707 707 704 701 706 702 688 683 684 680 677 675 671 669 666 664 666 666 666 670 670 673 689 695 690 690 694 690 686 686 687 689 693 695 695 695 694 691 693 702 708 706 703 713 728 727 721 723
806 804 801 799 796 794 791 788 784 779 775 772 771 771 768 768 768 766 765 764 760 758 756 755 755 754 754 751 746 743 741 733 721 715 717 715 711 712 713 709 704 700 698 703 699 690 692 693 684 680 680 677 677 678 674 673 670 667 671 673 675 688 696 690 690 696 694 689 686 683 686 691 692 693 693 693 692 693 698 702 700 702 710 715 718 721 719
806 804 801 799 797 794 791 789 785 781 777 773 772 772 770 770 770 767 765 763 760 758 756 754 753 749 748 748 743 739 738 730 718 710 712 715 710 709 712 710 705 701 699 698 693 686 689 690 684 683 685 681 681 683 680 678 677 673 675 678 680 689 697 692 693 701 699 689 683 681 684 689 693 694 692 691 692 694 697 699 699 703 712 712 713 720 720
806 803 801 799 797 794 792 789 786 783 779 776 776 774 771 771 769 766 766 762 757 757 756 753 749 744 744 745 739 735 732 724 716 709 706 709 709 707 709 708 704 703 700 694 688 682 683 684 680 680 683 681 680 680 676 674 678 678 678 683 685 690 697 695 697 708 704 690 688 689 686 688 695 698 695 693 694 696 697 697 697 701 709 714 717 722 720
806 803 801 799 797 795 792 790 788 785 782 780 780 776 773 772 768 765 766 762 756 755 755 751 747 742 741 740 733 732 729 718 715 714 706 703 704 704 704 705 705 706 703 694 686 682 681 681 680 680 680 677 675 675 672 669 674 678 680 685 688 690 698 700 702 710 706 694 692 692 691 701 708 703 696 692 691 693 694 694 694 695 700 710 717 716 711
806 803 801 799 797 795 793 791 789 786 784 783 782 778 775 774 770 766 766 761 753 751 751 751 748 743 740 735 730 728 724 716 716 718 712 704 702 701 701 702 704 704 699 690 683 681 680 679 681 682 681 679 675 671 670 669 671 675 678 685 689 692 698 701 700 706 708 698 692 696 708 720 717 703 693 689 687 692 696 695 693 693 694 700 704 702 702
805 803 801 798 797 795 793 791 789 787 785 784 783 779 775 775 773 768 766 762 753 748 750 751 748 743 736 730 727 725 721 717 716 716 714 708 704 702 700 700 703 700 691 685 683 683 684 684 684 683 682 681 676 670 670 671 671 673 675 681 689 694 699 702 699 702 706 700 700 717 728 722 707 696 691 687 685 689 694 694 691 690 692 695 697 698 699
805 803 801 798 796 794 793 791 789 787 786 784 782 779 775 774 774 769 765 764 757 750 751 751 742 735 730 726 725 723 721 719 716 713 712 710 706 704 699 697 699 694 688 688 687 686 690 691 688 685 682 678 675 672 672 673 673 674 675 678 686 693 700 703 701 702 707 710 715 728 726 708 696 694 689 685 687 690 696 702 698 692 691 693 696 697 696
805 802 800 798 796 794 792 790 789 787 785 783 780 777 775 774 773 770 766 764 759 751 750 748 740 733 729 726 725 724 720 717 715 712 710 709 707 704 698 693 692 688 686 689 688 687 692 693 689 687 683 681 684 684 679 675 673 675 677 678 682 689 698 705 707 705 708 715 719 720 717 709 702 697 690 688 692 693 699 708 705 694 691 693 694 696 695
804 802 800 798 795 794 792 790 788 786 784 782 779 775 773 772 772 771 767 765 763 754 744 742 740 737 733 727 726 726 723 719 717 713 710 708 704 701 695 690 688 686 684 686 688 689 693 694 695 696 693 692 695 692 685 681 678 675 678 680 682 686 694 703 711 709 707 715 721 723 727 722 709 698 688 684 688 688 691 704 707 696 691 693 694 696 695
804 801 799 797 795 793 791 789 788 786 783 781 778 774 772 771 771 770 766 764 765 757 741 735 738 739 736 731 727 726 726 723 720 716 713 709 705 701 696 689 687 687 686 688 689 688 692 696 694 694 693 691 693 692 688 688 688 682 679 682 684 687 692 699 710 712 710 717 724 725 727 719 704 694 685 682 685 685 689 708 714 699 690 692 694 696 696
803 801 798 796 794 792 791 788 787 785 783 781 778 774 770 769 771 771 766 763 763 755 738 732 736 737 736 734 728 725 726 724 722 721 719 715 711 710 702 691 687 687 688 693 692 689 694 696 691 690 690 682 683 690 689 691 697 695 690 690 692 694 697 703 713 716 713 717 720 719 719 712 698 690 688 685 683 684 701 726 724 700 691 694 694 695 696
802 800 798 796 794 791 790 788 786 785 783 781 778 774 770 769 770 770 767 764 762 751 734 729 736 736 731 727 725 725 725 723 722 724 723 718 715 715 708 698 694 692 691 696 698 697 698 696 690 692 692 678 677 688 691 691 697 698 695 697 700 702 703 707 714 716 714 716 718 717 715 707 694 689 688 684 686 698 719 730 716 696 694 695 693 693 694
801 799 797 795 793 791 789 787 786 784 782 780 778 773 769 768 768 769 767 765 763 753 736 729 733 731 724 721 721 722 722 722 723 726 726 721 714 710 708 703 700 700 698 699 701 701 701 696 688 688 691 684 681 686 688 689 691 691 692 698 703 706 707 709 713 715 714 713 715 719 718 704 691 689 686 684 698 717 721 711 700 696 696 695 693 693 690
800 798 796 794 792 790 788 786 785 783 781 780 778 774 769 767 767 769 768 765 764 755 738 729 729 727 722 722 722 721 721 722 724 726 727 723 712 707 712 713 709 708 707 706 707 707 706 704 697 692 695 695 688 686 689 689 684 683 688 695 699 701 706 712 712 710 711 713 715 722 722 705 690 691 693 694 705 713 708 699 697 698 696 695 697 694 689
799 797 795 793 791 789 787 785 784 783 781 780 779 774 769 766 766 768 767 765 766 758 739 726 727 726 722 719 718 718 718 718 718 720 723 719 711 710 718 721 717 715 714 713 715 714 712 712 709 702 702 701 695 695 699 697 690 684 683 688 693 695 701 710 708 703 709 718 718 715 712 700 690 694 700 702 702 700 697 698 698 697 695 697 697 695 692
798 796 794 792 790 788 786 784 783 782 780 778 778 775 770 766 764 766 765 763 762 756 739 727 726 725 719 715 712 711 713 712 710 713 718 718 713 713 717 718 717 717 715 714 717 718 715 716 714 710 708 707 705 702 701 702 706 701 691 689 696 696 694 699 701 698 703 711 710 704 700 696 693 695 699 699 697 695 695 697 698 697 697 696 695 696 696
797 795 792 791 789 787 785 783 781 781 779 777 777 775 771 766 763 763 764 760 755 748 735 727 726 722 715 710 707 706 709 709 707 708 712 715 715 715 715 716 717 717 714 712 715 717 718 718 716 713 712 711 710 707 702 704 712 711 700 693 694 693 688 690 697 699 701 703 701 698 699 698 696 696 697 697 697 696 696 697 699 699 697 695 696 697 697
795 793 791 789 787 785 784 782 780 779 777 776 776 773 770 767 764 763 762 759 754 747 735 727 725 721 715 710 706 704 706 706 706 706 706 708 712 714 714 714 715 716 715 711 709 712 716 717 717 716 714 711 711 710 708 708 711 712 707 698 693 692 691 692 696 701 708 712 707 701 701 701 698 698 698 698 697 698 698 699 700 699 697 697 697 697 698
793 792 789 788 786 783 782 780 779 777 776 774 773 771 768 764 764 765 764 761 758 754 748 738 726 717 714 709 705 704 705 704 704 705 704 704 706 709 710 709 708 711 712 707 705 710 716 717 718 720 718 714 712 713 714 712 709 708 709 705 700 698 698 697 697 701 708 713 709 702 700 700 698 699 700 699 700 700 700 700 701 700 699 699 698 698 700
791 790 788 786 784 782 780 779 777 775 774 772 770 769 766 762 762 764 764 762 758 754 752 744 728 715 713 712 706 703 704 703 703 703 702 702 702 703 704 704 703 705 705 702 702 706 710 709 710 715 716 713 712 716 718 714 707 705 707 705 700 701 703 699 698 704 710 711 707 703 703 703 702 701 701 700 701 702 702 702 702 702 701 701 700 700 701
789 788 786 784 782 780 778 777 775 773 771 770 768 766 763 759 758 760 760 761 759 754 751 746 733 721 718 715 708 704 702 702 702 702 701 701 701 700 701 702 702 701 701 700 700 701 703 704 703 705 707 708 709 713 714 709 704 705 707 704 699 701 706 704 703 711 717 714 708 706 708 710 708 705 702 701 701 702 703 704 704 704 704 704 703 703 703
787 785 784 782 780 778 776 775 773 771 769 767 764 761 758 754 754 756 756 758 760 757 754 750 740 730 723 715 707 704 703 700 700 701 701 700 700 700 699 700 700 700 700 700 701 701 703 704 702 700 701 703 706 707 705 703 705 707 709 707 704 704 706 706 709 714 715 711 706 704 706 709 708 705 702 702 701 702 704 705 705 705 705 704 705 705 706
785 783 782 780 777 776 774 773 771 770 768 766 761 757 754 752 752 754 756 757 757 755 753 750 743 733 725 715 707 704 702 699 698 699 700 700 700 699 699 698 699 699 698 699 702 703 702 700 698 698 698 698 702 704 703 705 711 712 707 705 704 701 700 701 705 708 708 705 703 703 704 707 706 704 703 703 703 704 706 706 706 706 705 705 706 707 707
783 781 779 777 775 773 771 770 770 768 767 766 763 759 755 753 753 755 754 755 755 754 754 754 747 734 723 715 709 705 701 698 697 697 698 699 699 698 698 697 696 696 697 699 700 701 700 697 696 697 695 694 699 704 704 706 712 711 704 700 700 700 699 699 700 702 704 703 702 701 703 705 704 703 704 705 705 706 708 708 708 707 706 706 707 707 708
780 778 776 774 772 771 769 768 767 767 766 766 765 763 758 754 753 753 753 753 755 755 755 755 748 736 723 714 709 705 702 698 697 697 696 697 698 697 696 696 695 696 698 700 700 700 700 699 698 698 696 695 698 702 703 706 711 709 702 698 698 698 698 698 698 699 701 701 701 702 703 704 704 706 707 707 707 707 709 709 709 708 708 708 708 708 709
778 775 773 771 769 767 766 765 765 765 765 764 764 761 756 753 752 752 751 753 755 756 755 753 747 738 727 716 707 703 700 697 696 696 696 696 697 696 695 695 695 694 695 698 700 700 699 698 697 697 697 697 699 701 703 707 710 706 699 696 696 696 697 698 699 699 700 700 701 705 708 708 707 708 709 709 708 708 709 710 709 709 709 709 709 709 710
775 771 769 767 765 763 763 762 761 761 761 760 760 756 752 751 751 750 750 753 754 753 753 751 747 740 730 719 709 702 698 697 697 697 697 696 695 696 695 694 694 694 695 698 700 699 697 695 697 698 698 697 698 702 705 705 703 699 695 694 695 696 696 698 699 700 701 701 702 706 710 710 708 708 708 708 709 710 710 710 710 710 710 710 711 711 711
772 768 765 763 761 760 758 757 757 757 757 756 755 752 750 750 750 749 750 752 752 751 749 748 745 738 728 721 714 705 698 698 699 699 698 696 694 694 696 695 695 697 698 698 698 698 697 695 697 700 700 698 699 704 706 702 696 694 694 693 694 695 697 698 699 701 702 703 704 705 707 708 707 708 709 710 710 711 711 710 711 711 711 712 712 712 712
768 765 763 760 757 756 754 753 753 754 754 754 752 749 749 750 749 748 749 749 749 750 747 742 741 737 731 727 721 708 699 699 700 697 696 696 694 693 694 696 699 700 699 697 698 699 698 696 697 699 701 701 703 706 704 699 695 694 694 694 694 695 698 700 701 702 702 703 705 706 706 707 708 709 710 711 711 712 712 711 712 712 713 713 713 712 713
765 762 760 757 755 753 752 751 752 753 753 753 751 749 749 749 747 748 748 747 748 749 745 740 738 736 732 731 724 708 699 701 700 694 692 695 695 693 693 697 701 700 696 696 699 700 697 695 697 700 701 702 704 703 698 695 695 695 695 696 695 696 698 700 702 703 703 704 706 707 707 707 709 709 710 712 712 712 713 713 712 713 714 714 713 713 715
764 761 758 755 753 752 751 751 751 752 752 751 750 748 747 747 746 747 747 746 746 745 744 744 741 734 731 730 722 709 704 704 701 696 694 696 696 694 693 698 702 700 698 699 700 697 695 695 698 702 703 700 700 698 694 693 695 695 695 697 696 695 697 699 700 703 705 706 707 708 708 708 709 709 710 712 712 713 714 714 713 713 714 714 713 714 716
762 759 757 754 753 752 751 752 752 752 751 749 748 747 746 745 745 745 744 744 744 742 742 743 739 731 729 728 720 711 708 707 704 701 699 697 697 697 696 698 700 700 701 701 696 692 694 696 698 701 700 696 694 695 693 692 694 694 694 696 696 696 697 699 700 703 707 709 710 709 708 708 709 709 710 711 712 713 714 714 713 713 713 713 714 715 716
763 760 758 756 754 753 753 753 751 750 748 747 747 747 744 743 744 742 739 738 739 739 738 738 734 727 726 726 719 710 707 707 707 707 704 701 701 702 702 701 700 701 704 704 696 693 698 701 698 699 699 696 694 696 694 692 694 695 695 696 697 696 697 698 699 701 705 707 708 708 707 708 709 710 710 711 712 713 713 714 713 713 713 713 714 715 717
764 762 760 758 756 755 754 751 750 749 748 746 746 745 743 741 740 736 732 732 733 732 729 727 723 718 718 720 717 710 704 704 707 709 708 703 700 700 703 704 702 704 708 707 698 696 701 702 699 700 701 698 696 696 695 694 696 696 696 697 697 697 698 699 700 701 703 705 705 706 706 706 708 709 710 711 713 713 714 713 714 714 714 715 715 717 718
767 766 764 761 758 756 753 750 749 749 747 746 745 745 743 740 734 729 727 729 728 722 717 715 715 714 712 713 714 710 704 701 701 704 706 704 700 700 705 704 701 704 710 706 697 695 700 701 701 702 702 698 695 695 695 696 697 697 698 699 699 698 699 700 701 702 703 705 705 706 706 707 707 709 710 712 713 713 713 713 714 715 715 716 717 718 720
770 768 766 762 759 755 752 750 749 748 746 746 746 743 739 734 730 727 726 725 721 714 709 708 709 708 705 705 707 707 703 700 699 702 706 705 701 701 704 703 702 707 709 700 693 696 700 701 702 703 699 695 694 695 696 697 698 699 700 700 700 700 701 702 703 704 705 705 706 707 707 708 708 709 710 711 712 713 713 714 715 716 716 718 720 721 721
767 765 765 764 759 754 751 749 746 745 745 745 746 744 737 731 727 725 722 717 713 710 707 704 703 702 702 703 706 706 703 700 701 703 705 704 701 700 704 706 706 707 702 695 695 701 703 702 702 702 697 694 694 696 697 698 699 700 701 702 702 702 703 703 704 705 705 706 707 708 708 708 709 710 711 711 712 714 715 715 716 716 717 719 720 722 723
764 761 762 761 756 753 751 748 743 743 745 743 741 741 738 731 726 723 719 713 710 707 704 702 704 707 706 704 705 705 703 700 701 704 704 702 700 702 707 709 705 701 698 697 701 703 701 697 696 695 694 694 695 696 696 698 699 701 702 703 703 703 704 704 705 705 706 707 707 707 708 709 710 711 711 712 713 715 716 716 717 718 718 720 722 723 725
765 761 759 758 754 751 751 747 741 740 741 737 732 733 732 728 724 721 716 710 707 705 702 701 704 707 707 704 703 703 701 701 704 705 703 701 703 705 705 703 699 698 700 704 705 704 700 696 693 693 694 695 694 694 695 697 698 700 702 704 704 705 705 705 705 706 706 707 707 707 709 710 711 712 712 714 715 716 717 717 718 719 720 721 723 725 726
767 761 759 760 756 751 749 746 740 735 733 729 725 725 724 721 719 715 710 707 707 706 704 702 702 705 707 707 706 703 700 701 705 704 701 703 707 704 698 696 700 703 707 709 709 707 703 699 694 694 694 693 692 693 694 695 697 700 702 704 705 706 705 705 706 706 706 707 707 708 709 710 711 712 713 715 716 717 717 718 719 720 721 722 724 726 727
768 761 759 761 758 751 746 743 737 731 726 723 721 719 717 715 713 709 706 705 707 706 704 702 702 704 705 706 706 705 701 700 703 703 701 703 705 700 696 700 706 708 710 712 710 706 701 698 696 695 693 692 692 693 694 694 697 699 701 703 705 706 706 706 706 706 707 707 708 708 709 710 711 713 714 715 716 717 718 718 719 720 721 723 724 725 727
768 763 762 762 757 749 743 739 735 730 726 722 719 715 713 712 710 708 705 705 706 707 706 705 706 708 707 705 706 707 704 702 703 702 700 700 703 703 704 708 709 707 706 707 706 702 699 697 695 693 692 692 692 693 694 695 697 699 701 703 704 705 706 707 707 707 707 708 708 709 710 710 711 713 713 715 716 717 718 719 720 721 722 723 724 725 727
768 765 763 762 756 748 743 740 738 734 728 722 717 712 709 709 710 710 708 707 707 707 707 706 709 712 711 707 706 706 705 704 705 703 700 702 706 707 708 711 711 708 704 702 699 698 698 696 693 693 693 693 693 694 695 695 697 698 700 702 703 704 706 707 707 707 708 708 708 709 710 711 712 713 713 714 716 717 718 719 720 721 722 723 724 725 726
767 765 763 761 758 753 747 743 742 738 732 727 721 715 710 710 712 712 711 710 709 709 709 708 710 712 712 710 710 709 706 703 702 703 704 705 706 706 707 710 710 708 704 699 697 696 697 695 694 695 695 694 694 695 696 696 697 698 699 701 702 703 704 705 706 707 708 708 709 709 710 711 712 712 712 714 715 716 717 719 720 721 722 723 724 725 726
765 763 760 758 756 754 750 748 747 744 739 734 728 721 716 715 716 715 713 712 712 713 713 713 712 712 713 713 714 713 708 702 700 704 706 704 702 704 709 710 707 704 704 703 700 698 697 696 695 696 696 696 696 696 696 697 697 698 698 700 701 702 703 704 706 707 708 709 709 709 710 711 712 712 712 713 715 716 718 719 720 721 722 723 724 724 725
763 761 758 755 753 752 751 749 747 744 740 735 730 724 719 718 717 715 714 714 715 717 717 715 713 714 714 712 710 708 707 705 705 706 705 702 703 708 714 714 708 703 703 704 703 701 700 698 696 696 697 697 697 697 698 698 699 698 698 699 700 701 703 704 705 707 708 709 709 710 710 711 711 712 712 713 715 716 718 719 720 721 722 723 723 724 725